This is the latest recevied weather packets stored in our database for station/object N5XL. If no packets are shown the sender has not sent any weather packets the latest 10 day(s).
| Time | Temp. | Humidity | Pressure | Rain* | Wind** | Luminosity | Snow |
|---|---|---|---|---|---|---|---|
| 1777989244 | 18.89° C | 68% | 1011.9 hPa | 0 mm | - | 81 W/m² | - |
| 1777988185 | 18.33° C | 70% | 1011.7 hPa | 0 mm | - | 44 W/m² | - |
| 1777985125 | 18.33° C | 69% | 1011.6 hPa | 0 mm | - | 2 W/m² | - |
| 1777983504 | 18.33° C | 71% | 1011.1 hPa | 0 mm | - | 0 W/m² | - |
| 1777978803 | 18.33° C | 67% | 1011.1 hPa | 0 mm | - | 0 W/m² | - |
| 1777975743 | 18.33° C | 64% | 1012.3 hPa | 0 mm | - | 0 W/m² | - |
| 1777974865 | 18.33° C | 64% | 1012.3 hPa | 0 mm | - | 0 W/m² | - |
| 1777971244 | 18.33° C | 63% | 1012.4 hPa | 0 mm | - | 0 W/m² | - |
| 1777964943 | 19.44° C | 58% | 1013.1 hPa | 0 mm | - | 0 W/m² | - |
| 1777959903 | 20° C | 48% | 1013 hPa | 0 mm | - | 0 W/m² | - |
| 1777954144 | 21.67° C | 29% | 1013.1 hPa | 0 mm | - | 0 W/m² | - |
| 1777947483 | 23.89° C | 27% | 1011.9 hPa | 0 mm | - | 0 W/m² | - |
| 1777942443 | 25° C | 27% | 1011.2 hPa | 0 mm | - | 77 W/m² | - |
| 1777941903 | 25° C | 26% | 1011.5 hPa | 0 mm | - | 62 W/m² | - |
| 1777938843 | 26.67° C | 23% | 1011.4 hPa | 0 mm | - | 70 W/m² | - |
| 1777935243 | 27.22° C | 23% | 1010.6 hPa | 0 mm | - | 169 W/m² | - |
| 1777934724 | 27.22° C | 24% | 1011.2 hPa | 0 mm | - | 193 W/m² | - |
| 1777926964 | 26.67° C | 27% | 1013 hPa | 0 mm | - | 345 W/m² | - |
| 1777919764 | 27.22° C | 30% | 1012.6 hPa | 0 mm | - | 338 W/m² | - |
| 1777919223 | 26.67° C | 30% | 1012.6 hPa | 0 mm | - | 465 W/m² | - |
| 1777918684 | 26.67° C | 31% | 1012.7 hPa | 0 mm | - | 316 W/m² | - |
| 1777915083 | 25.56° C | 35% | 1013.2 hPa | 0 mm | - | 330 W/m² | - |
| 1777913103 | 26.11° C | 34% | 1012.9 hPa | 0 mm | - | 412 W/m² | - |
| 1777910043 | 24.44° C | 37% | 1013.2 hPa | 0 mm | - | 300 W/m² | - |
| 1777908423 | 23.89° C | 39% | 1012.7 hPa | 0 mm | - | 213 W/m² | - |
* Rain latest hour (hover to see other rain measurements)
** Current wind speed in m/s (hover to see current wind gust speed)